TimeEST,TemperatureF,Dew PointF,Humidity,Sea Level PressureIn,VisibilityMPH,Wind Direction,Wind SpeedMPH,Gust SpeedMPH,PrecipitationIn,Events,Conditions,WindDirDegrees,DateUTC
12:15 AM,49.5,47.8,94,30.08,10.0,Calm,Calm,-,N/A,,Clear,0,2013-02-06 05:15:00
12:35 AM,48.9,47.5,95,30.08,1.8,Calm,Calm,-,N/A,,Mist,0,2013-02-06 05:35:00
12:55 AM,48.9,47.5,95,30.08,7.0,Calm,Calm,-,N/A,,Scattered Clouds,0,2013-02-06 05:55:00
1:15 AM,48.9,47.5,95,30.09,0.2,Calm,Calm,-,N/A,Fog,Fog,0,2013-02-06 06:15:00
1:35 AM,49.5,48.2,95,30.08,0.2,Calm,Calm,-,N/A,Fog,Fog,0,2013-02-06 06:35:00
1:55 AM,46.9,45.5,95,30.08,4.0,Calm,Calm,-,N/A,,Scattered Clouds,0,2013-02-06 06:55:00
2:15 AM,46.6,45.3,95,30.08,1.5,Calm,Calm,-,N/A,,Mist,0,2013-02-06 07:15:00
2:35 AM,47.3,46.0,95,30.08,2.5,Calm,Calm,-,N/A,,Clear,0,2013-02-06 07:35:00
2:55 AM,46.0,44.8,95,30.09,10.0,Calm,Calm,-,N/A,,Clear,0,2013-02-06 07:55:00
3:15 AM,46.2,45.0,95,30.09,0.2,Calm,Calm,-,N/A,Fog,Fog,0,2013-02-06 08:15:00
3:35 AM,45.9,44.8,96,30.09,0.8,Calm,Calm,-,N/A,,Overcast,0,2013-02-06 08:35:00
3:55 AM,45.7,44.4,95,30.09,0.5,Calm,Calm,-,N/A,Fog,Fog,0,2013-02-06 08:55:00
4:15 AM,44.6,43.3,95,30.10,0.2,Calm,Calm,-,N/A,Fog,Fog,0,2013-02-06 09:15:00
4:35 AM,43.3,42.1,95,30.10,4.0,Calm,Calm,-,N/A,,Overcast,0,2013-02-06 09:35:00
4:55 AM,45.5,44.4,96,30.11,0.2,Calm,Calm,-,N/A,Fog,Fog,0,2013-02-06 09:55:00
5:55 AM,43.0,41.9,96,30.12,0.5,Calm,Calm,-,N/A,Fog,Fog,0,2013-02-06 10:55:00
6:15 AM,42.4,41.4,96,30.13,0.2,Calm,Calm,-,N/A,Fog,Fog,0,2013-02-06 11:15:00
6:35 AM,43.3,42.3,96,30.14,1.0,Calm,Calm,-,N/A,,Overcast,0,2013-02-06 11:35:00
6:55 AM,44.8,43.7,96,30.14,4.0,Calm,Calm,-,N/A,,Overcast,0,2013-02-06 11:55:00
7:15 AM,44.6,43.7,97,30.15,4.0,Calm,Calm,-,N/A,,Overcast,0,2013-02-06 12:15:00
7:35 AM,45.1,44.1,96,30.15,0.2,Calm,Calm,-,N/A,Fog,Fog,0,2013-02-06 12:35:00
7:55 AM,45.0,43.9,96,30.15,0.2,Calm,Calm,-,N/A,Fog,Fog,0,2013-02-06 12:55:00
8:35 AM,50.0,48.9,96,30.17,0.2,Calm,Calm,-,N/A,Fog,Fog,0,2013-02-06 13:35:00
8:55 AM,52.7,51.6,96,30.18,7.0,Calm,Calm,-,N/A,,Scattered Clouds,0,2013-02-06 13:55:00
9:15 AM,55.8,54.5,96,30.18,10.0,Calm,Calm,-,N/A,,Clear,0,2013-02-06 14:15:00
9:35 AM,57.9,54.5,88,30.19,10.0,North,4.6,-,N/A,,Clear,350,2013-02-06 14:35:00
9:55 AM,60.4,54.9,82,30.19,10.0,Calm,Calm,-,N/A,,Clear,0,2013-02-06 14:55:00
10:15 AM,62.4,54.3,75,30.19,10.0,NNE,3.5,-,N/A,,Clear,20,2013-02-06 15:15:00
10:35 AM,66.0,49.1,54,30.19,10.0,NE,4.6,-,N/A,,Clear,40,2013-02-06 15:35:00
10:55 AM,68.2,47.3,47,30.19,10.0,NE,5.8,-,N/A,,Clear,40,2013-02-06 15:55:00
11:15 AM,68.4,46.6,46,30.19,10.0,ENE,3.5,-,N/A,,Clear,60,2013-02-06 16:15:00
11:35 AM,70.0,46.0,42,30.19,10.0,East,4.6,-,N/A,,Clear,80,2013-02-06 16:35:00
11:55 AM,70.9,46.4,42,30.18,10.0,Calm,Calm,-,N/A,,Clear,0,2013-02-06 16:55:00
12:15 PM,71.1,45.0,39,30.18,10.0,Calm,Calm,-,N/A,,Clear,0,2013-02-06 17:15:00
12:35 PM,71.6,44.4,38,30.16,10.0,SE,3.5,-,N/A,,Clear,130,2013-02-06 17:35:00
12:55 PM,71.6,44.6,38,30.15,10.0,South,4.6,-,N/A,,Clear,170,2013-02-06 17:55:00
1:15 PM,72.1,44.6,37,30.15,10.0,Calm,Calm,-,N/A,,Clear,0,2013-02-06 18:15:00
1:35 PM,73.2,44.4,36,30.15,10.0,Calm,Calm,-,N/A,,Clear,0,2013-02-06 18:35:00
1:55 PM,73.2,44.4,36,30.14,10.0,NE,3.5,-,N/A,,Clear,50,2013-02-06 18:55:00
2:15 PM,73.8,44.6,35,30.13,10.0,NE,3.5,-,N/A,,Clear,50,2013-02-06 19:15:00
2:35 PM,73.9,44.6,35,30.13,10.0,North,3.5,-,N/A,,Clear,360,2013-02-06 19:35:00
2:55 PM,74.7,43.5,33,30.12,10.0,SW,3.5,-,N/A,,Clear,220,2013-02-06 19:55:00
3:15 PM,74.7,43.5,33,30.12,10.0,SW,3.5,-,N/A,,Clear,220,2013-02-06 20:15:00
3:35 PM,74.7,43.5,33,30.12,10.0,Calm,Calm,-,N/A,,Clear,0,2013-02-06 20:35:00
3:55 PM,75.6,43.2,31,30.12,10.0,Calm,Calm,-,N/A,,Clear,0,2013-02-06 20:55:00
4:35 PM,74.7,42.8,32,30.11,10.0,Calm,Calm,-,N/A,,Clear,0,2013-02-06 21:35:00
4:55 PM,74.3,42.6,32,30.10,10.0,Calm,Calm,-,N/A,,Clear,0,2013-02-06 21:55:00
5:15 PM,73.6,41.4,31,30.11,10.0,Calm,Calm,-,N/A,,Clear,0,2013-02-06 22:15:00
5:35 PM,73.4,42.1,32,30.11,10.0,Calm,Calm,-,N/A,,Clear,0,2013-02-06 22:35:00
5:55 PM,71.4,44.4,38,30.12,10.0,Calm,Calm,-,N/A,,Clear,0,2013-02-06 22:55:00
6:15 PM,68.7,46.0,44,30.12,10.0,Calm,Calm,-,N/A,,Clear,0,2013-02-06 23:15:00
6:35 PM,64.8,47.3,53,30.12,10.0,Calm,Calm,-,N/A,,Clear,0,2013-02-06 23:35:00
6:55 PM,62.6,48.2,59,30.12,10.0,Calm,Calm,-,N/A,,Clear,0,2013-02-06 23:55:00
7:15 PM,61.7,48.4,62,30.12,10.0,Calm,Calm,-,N/A,,Clear,0,2013-02-07 00:15:00
7:35 PM,61.0,48.2,63,30.11,10.0,Calm,Calm,-,N/A,,Clear,0,2013-02-07 00:35:00
7:55 PM,54.9,47.1,75,30.13,10.0,Calm,Calm,-,N/A,,Clear,0,2013-02-07 00:55:00
8:15 PM,55.4,48.6,78,30.13,7.0,Calm,Calm,-,N/A,,Clear,0,2013-02-07 01:15:00
8:35 PM,55.6,49.1,79,30.14,7.0,Calm,Calm,-,N/A,,Clear,0,2013-02-07 01:35:00
8:55 PM,53.4,48.0,82,30.15,7.0,Calm,Calm,-,N/A,,Clear,0,2013-02-07 01:55:00
9:15 PM,52.0,47.1,83,30.16,5.0,Calm,Calm,-,N/A,,Haze,0,2013-02-07 02:15:00
9:35 PM,50.9,46.9,86,30.16,5.0,Calm,Calm,-,N/A,,Clear,0,2013-02-07 02:35:00
9:55 PM,51.6,47.1,85,30.16,4.0,Calm,Calm,-,N/A,,Haze,0,2013-02-07 02:55:00
10:15 PM,51.3,46.8,85,30.16,7.0,Calm,Calm,-,N/A,,Scattered Clouds,0,2013-02-07 03:15:00
10:35 PM,49.8,46.4,88,30.15,5.0,Calm,Calm,-,N/A,,Scattered Clouds,0,2013-02-07 03:35:00
10:55 PM,49.3,46.4,90,30.15,5.0,Calm,Calm,-,N/A,,Clear,0,2013-02-07 03:55:00
11:15 PM,50.2,47.1,89,30.15,7.0,Calm,Calm,-,N/A,,Clear,0,2013-02-07 04:15:00
11:35 PM,48.2,46.0,92,30.14,5.0,Calm,Calm,-,N/A,,Clear,0,2013-02-07 04:35:00
11:55 PM,48.2,46.4,93,30.14,5.0,Calm,Calm,-,N/A,,Clear,0,2013-02-07 04:55:00